STARLINK-32457, 61717

Orbit data source: Space-Track

STARLINK-32457, 61717 is a payload satellite owned by SpaceX/Seattle (US) in LEO that was launched on Wed, 30 Oct 2024 UTC via an FALCON 9 launch vehicle from the Air Force Eastern Test Range (AFETR). Payloads include a variety of satellites, spacecraft, and rockets equipped with specific instruments for various scientific and technological missions. These include communications satellites like Starlink; space stations such as the ISS; scientific satellites like the Hubble; Earth observation satellites from companies like Planet Labs, Umbra, and HawkEye 360; GPS; miniature CubeSats for education and research; and military/defense satellites.

Loading next visibility...
STARLINK-32457 details
Identifier
61717, 2024-196L
Orbit
LEO
Last TLE update21 hours ago
Origin
Flag of USSpaceX/Seattle (US)
ManufacturerSpaceX/Seattle
MissionOperational spacecraft
Bus & MotorSTARLINK V2M, Unknown motor
Mass730 kg wet, ~700 kg dry
Launch date (UTC)
2024-10-30 (1 month ago)
Launch vehicle
FALCON 9
Launch site
Air Force Eastern Test Range (AFETR)
Object type
Payload
Rocket body
Debris
Shape & HBRUnknown
Radar Cross SectionLarge (>1 m²)

Expand to show TLE details & history

TLE from 21 hours ago
0 STARLINK-32457
1 61717U 24196L   24346.46005487  .00000126  00000-0  13131-4 0  9999
2 61717  53.1614  49.4885 0001002  99.6367 260.4751 15.39604305  7755
Epoch: 2024-12-11T11:02Z
Definitive object data (Epoch: 2024-12-11T11:02:28.74Z)
Latitude-0.00005°
Longitude163.21429°
Altitude448.295 km
Speed7.644 km/s
True Right ascension03h 17m 57s
True Declination0° 00' 00"
Sunlit
Object was in full shadow at TLE epoch
Visualization TLE readout
Latitude-50.6599°
Longitude44.37642°
Altitude465.389 km
Speed7.633 km/s
Apparent Right ascension19h 05m 01s
Apparent Declination-45° 22' 08"
Sunlit
Object is in daylight
Visualization observer readout
Local Sidereal Time06:49:25
Azimuth206.444° SW
Elevation-83.841°
Doppler factor1
Orbital elements
Apogee altitude448.22 km
Perigee altitude446.852 km
Semi-major axis6,825.673 km
Eccentricity0.0001002
Inclination53.1614°
RAAN49.4885°
Arg. of periapsis99.6367°
True anomaly260.46378°
Mean anomaly260.4751°
Eccentric anomaly260.46944°
Mean motion3.8488 °/min
BSTAR0.000013131
Orbital period93.54 mins
Loading maneuver chart data...
Loading historical data...
Loading historical data...
Loading historical data...
Loading historical data...
Loading historical data...
Loading historical data...
Loading historical data...

STARLINK-32457 Visibility forecast

Observer location: undefined°, undefined

Span
Click to sort rows by Start time (UTC) header in descending order
Start Az.
Max El. time (UTC)
Max El. Az.
Max El.
End time (UTC)
End Az.
4 mins2024-12-12 12:25:45.920Z352.474° N2024-12-12 12:26:45.920Z13.194° NNE17.792°2024-12-12 12:29:45.920Z71.574° E
5 mins2024-12-12 14:02:45.920Z303.246° NW2024-12-12 14:04:45.920Z236.077° WSW43.604°2024-12-12 14:07:45.920Z138.571° SSE
6 mins2024-12-13 06:50:45.920Z232.696° WSW2024-12-13 06:53:45.920Z295.53° NW44.587°2024-12-13 06:56:45.920Z47.769° ENE
|